Regional Weather Roundup
Issued by NWS

Home | Current Version | Previous Version | Graphics & Text | Print | Product List | Glossary On
Versions: 1 2 3 4 5 6 7 8 9 10 11 12 13 14 15 16 17 18 19 20 21 22 23 24 25 26 27
000
ASUS45 KSLC 230910
RWRUT

UTAH REGIONAL WEATHER ROUNDUP
NATIONAL WEATHER SERVICE SALT LAKE CITY UT
200 AM MST THU FEB 23 2017

UTZ001>011-023>025-231000-

NORTHERN UTAH

CITY           SKY/WX    TMP DP  RH WIND       PRES   REMARKS
BRIGHAM CITY     N/A     33  25  72 CALM      29.72S
HILL AFB       CLOUDY    30  25  80 S5        29.70F WCI  25
LOGAN          CLOUDY    31  24  75 NE7       29.69F WCI  24
OGDEN          CLOUDY    30  25  81 SE5       29.71F WCI  25
SALT LAKE CITY CLOUDY    31  28  89 S7        29.72F WCI  24
TOOELE VALLEY  CLOUDY    30  27  86 SW10      29.73F WCI  21
WENDOVER       CLOUDY    32  16  51 NW9       29.75S WCI  24
HEBER CITY     LGT SNOW  25  23  93 SE3       29.67F
WEST JORDAN    CLOUDY    31  31 100 SE5       29.72F WCI  27

$$

UTZ011>015-024>027-231000-

CENTRAL/NORTHEAST UTAH

CITY           SKY/WX    TMP DP  RH WIND       PRES   REMARKS
PROVO AIRPORT  LGT SNOW  28  27  96 SE7       29.73F FOG     WCI  21
MOAB/CANYONLAN LGT SNOW  33  30  88 W15G22    29.62R FOG     WCI  23
DELTA          CLOUDY    27  25  93 SW9       29.75F WCI  17
PRICE          CLOUDY    29  12  49 NW8       29.60F WCI  21
ROOSEVELT      LGT SNOW  28  27  93 W12       29.63F VSB 1   WCI  18
VERNAL         LGT SNOW  29  26  89 SW12      29.59F VSB 1   WCI  19

$$

UTZ013>016-019>022-027-231000-

SOUTHERN UTAH

CITY           SKY/WX    TMP DP  RH WIND       PRES   REMARKS
BRYCE CANYON   CLOUDY    20  12  71 W13       29.69F WCI   7
CEDAR CITY     CLOUDY    24  20  84 N3        29.76R
MILFORD        CLOUDY    21  18  88 W6        29.77S WCI  13
ST GEORGE      CLOUDY    39  33  79 W5        29.84S
HANKSVILLE     MOCLDY    36  10  35 W10       29.70S WCI  28
BLANDING       MOCLDY    37  29  72 W23       29.70S WCI  26

$$

REGIONAL REPORTS     COLORADO/ARIZONA

CITY           SKY/WX    TMP DP  RH WIND       PRES   REMARKS
CRAIG, CO      LGT SNOW  29  26  89 CALM      29.52F FOG
GRAND JUNCTION CLOUDY    42  32  67 W18       29.55R
RIFLE, CO      LGT RAIN  48  21  34 SW8G18    29.47F
MONTROSE, CO   CLEAR     45  16  31 S12       29.59F
CORTEZ, CO     LGT RAIN  38  33  82 W21G32    29.67F WCI  28
COLORADO CITY  PTSUNNY   34  30  86 CALM      29.82R
PAGE, AZ       CLOUDY    41  21  44 W14G20    29.71R
GRAND CANYON   MOCLDY    29  22  75 SW12      29.76S WCI  19
KINGMAN, AZ    CLOUDY    39  18  42 SW9       29.86S WCI  33
FLAGSTAFF, AZ  PTCLDY    32  21  64 SW20G29   29.77S WCI  20

$$

REGIONAL REPORTS    NEVADA/IDAHO/WYOMING

CITY           SKY/WX    TMP DP  RH WIND       PRES   REMARKS
LAS VEGAS, NV  PTCLDY    47  31  53 SW3       29.85S
ELY, NY        PTCLDY     6   0  76 W6        29.80S WCI  -4
ELKO, NV       LGT SNOW  26  22  84 SW13      29.81R FOG     WCI  15
POCATELLO, ID  LGT SNOW  28  27  96 W9        29.70F VSB 3/4 WCI  19
BURLEY, ID     CLOUDY    31  26  82 SW9       29.68F WCI  23
FORT BRIDGER,  LGT SNOW  21  21 100 W16       29.64F WCI   7
EVANSTON, WY   LGT SNOW  19  15  84 SW8       29.62F FOG     WCI   9
ROCK SPRINGS,  LGT SNOW  24  22  91 N10       29.58F FOG     WCI  14

$$




USA.gov is the U.S. government's official web portal to all federal, state and local government web resources and services.